STARLINK-1665, 46356

Orbit data source: Space-Track

STARLINK-1665, 46356 is a payload satellite owned by SpaceX/Seattle (US) in LEO that was launched on Thu, 03 Sep 2020 UTC via an FALCON 9 launch vehicle from the Air Force Eastern Test Range (AFETR). Payload-class satellites include a variety of spacecraft equipped with specific instruments for various scientific and technological missions. These include communications satellites like Starlink; space stations such as the ISS; scientific satellites like the Hubble; Earth observation satellites from companies like Planet Labs, Umbra, and HawkEye 360; GPS; miniature CubeSats for education and research; and military/defense satellites.

Loading next visibility...
Identifier
46356, 2020-062AH
Orbit
LEO
Last TLE update
12 hours ago
Origin
Manufacturer
SpaceX/Seattle
Mission
Operational Commercial Communications
Bus & Motor
STARLINK, Unknown motor
Mass
260 kg wet, ~248 kg dry
Launch date (UTC)
2020-09-03 (5 years ago)
Launch vehicle
FALCON 9
Launch site
Air Force Eastern Test Range (AFETR)
Object type
Payload
Rocket body
Debris
Shape & HBR
Box + 1 Pan, 8.86 m
Radar Cross Section
13.562 m², Large (>1 m²)

Expand to show TLE details & history

TLE from 12 hours ago
0 STARLINK-1665
1 46356U 20062AH  25128.72388446  .00001472  00000-0  11764-3 0  9990
2 46356  53.0540 305.6978 0001003  94.4393 265.6711 15.06407060258346
Epoch: 2025-05-08T17:22Z
Definitive object data (Epoch: 2025-05-08T17:22:23.617Z)
Latitude
0.00002°
Longitude
178.30913°
Altitude
548.122 km
Speed
7.589 km/s
True Right ascension
20h 22m 47s
True Declination
0° 00' 00"
Sunlit
Object was in daylight at TLE epoch
Visualization TLE readout
Latitude
-51.74937°
Longitude
104.41001°
Altitude
565.816 km
Speed
7.578 km/s
Apparent Right ascension
21h 50m 28s
Apparent Declination
-78° 28' 31"
Sunlit
Object is in full shadow
Visualization observer readout
Local Sidereal Time
13:54:31
Azimuth
165.775° S
Elevation
-44.667°
Doppler factor
1
Orbital elements
Apogee altitude
548.155 km
Perigee altitude
546.766 km
Semi-major axis
6,925.598 km
Eccentricity
0.0001003
Inclination
53.054°
RAAN
305.6978°
Arg. of periapsis
94.4393°
True anomaly
265.65964°
Mean anomaly
265.6711°
Eccentric anomaly
265.66537°
Mean motion
3.7658 °/min
BSTAR
0.00011764
Orbital period
95.6 mins
Loading maneuver chart data...
Loading SW <> Apogee altitude chart data...
Loading historical data...
Loading historical data...
Loading historical data...
Loading historical data...
Loading historical data...
Loading historical data...
Loading historical data...

STARLINK-1665 Visibility forecast

Observer location: undefined°, undefined°

Span
Click to sort rows by Start time (UTC) header in descending order
Start Az.
Max El. time (UTC)
Max El. Az.
Max El.
End time (UTC)
End Az.
7 mins2025-05-09 14:14:48.023Z218.064° SW2025-05-09 14:17:48.023Z156.36° SSE42.673°2025-05-09 14:21:48.023Z55.046° ENE
5 mins2025-05-09 15:55:48.023Z294.825° NW2025-05-09 15:57:48.023Z335.39° NNW22.434°2025-05-09 16:00:48.023Z27.85° NE
4 mins2025-05-09 19:17:48.023Z350.088° N2025-05-09 19:19:48.023Z26.835° NE17.332°2025-05-09 19:21:48.023Z58.61° ENE
6 mins2025-05-09 20:56:48.023Z317.776° NNW2025-05-09 20:59:48.023Z67.848° E42.088°2025-05-09 21:02:48.023Z119.562° SE
|